Probability
0 0 0 0 0 0 0 0 0 0 0 0 0 0 0 0 0 0 0 0 0 0 0 0 0 0 0 0 0 0 0 0 0 0 0 0 0 0
0 0 0 0 0 0 0 0 0 0 0 0 0 0 0 0 0 0 0 0 0 0 0 0 0 0 0 0 0 0 0 0 0 0 0 0 0 0
0 0 0 0 0 0 0 0 0 0 0 0 0 0 0 0 0 0 0 0 0 0 0 0 0 0 0 0 0 0 0 0 0 0 0 0 0 0
0 0 0 0 0 0 0 0 0 0 0 0 0 0 0 0 0 0 0 0 0 0 0 0 0 0 0 0 0 0 0 0 0 0 0 0 0 0
0 0 0 0 0 0 0 0 0 0 0 0 0 0 0 0 0 0 0 0 0 0 0 0 0 0 0 0 0 0 0 0 0 0 0 0 0 0
0 0 0 0 0 0 0 0 0 0 0 0 0 0 0 0 0 0 0 0 0 0 0 0 0 0 0 0 0 0 0 0 0 0 0 0 0 0
0 0 0 0 0 0 0 0 0 0 0 0 0 0 0 0 0 0 0 0 0 0 0 0 0 0 0 0 0 0 0 0 0 0 0 0 0 0
0 0 0 0 0 0 0 0 0 0 0 0 0 0 0 0 0 0 0 0 0 0 0 0 0 0 0 0 0 0 0 0 0 0 0 0 0 0
0 0 0 0 0 0 0 0 0 0 0 0 0 0 0 0 0 0 0 0 0 0 0 0 0 0 0 0 0 0 0 0 0 0 0 0 0 0
0 0 0 0 0 0 0 0 0 0 0 0 0 0 0 0 0 0 0 0 0 0 0 0 0 0 0 0 0 0 0 0 0 0 0 0 0 0
0 0 0 0 0 0 0 0 0 0 0 0 0 0 0 0 0 0 0 0 0 0 0 0 0 0 0 0 0 0 0 0 0 0 0 0 0 0
0 0 0 0 0 0 0 0 0 0 0 0 0 0 0 0 0 0 0 0 0 0 0 0 0 0 0 0 0 0 0 0 0 0 0 0 0 0
0 0 0 0 0 0 0 0 0 0 0 0 0 0 0 0 0 0 0 0 0 0 0 0 0 0 0 0 0 0 0 0 0 0 0 0 0 0
0 0 0 0 0 0 0 0 0 0 0 0 0 0 0 0 0 0 0 0 0 0 0 0 0 0 0 0 0 0 0 0 0 0 0 0 0 0
0 0 0 0 0 0 0 0 0 0 0 0 0 0 0 0 0 0 0 0 0 0 0 0 0 0 0 0 0 0 0 0 0 0 0 0 0 0
0 0 0 0 0 0 0 0 0 0 0 0 0 0 0 0 0 0 0 0 0 0 0 0 0 0 0 0 0 0 0 0 0 0 0 0 0 0
0 0 0 0 0 0 0 0 0 0 0 0 0 0 0 0 0 0 0 0 0 0 0 0 0 0 0 0 0 0 0 0 0 0 0 0 0 0
0 0 0 0 0 0 0 0 0 0 0 0 0 0 0 0 0 0 0 0 0 0 0 0 0 0 0 0 0 0 0 0 0 0 0 0 0 0
0 0 0 0 0 0 0 0 0 0 0 0 0 0 0 0 0 0 0 0 0 0 0 0 0 0 0 0 0 0 0 0 0 0 0 0 0 0
0 0 0 0 0 0 0 0 0 0 0 0 0 0 0 0 0 0 0 0 0 0 0 0 0 0 0 0 0 0 0 0 0 0 0 0 0 0
0 0 0 0 0 0 0 0 0 0 0 0 0 0 0 0 0 0 0 0 0 0 0 0 0 0 0 0 0 0 0 0 0 0 0 0 0 0
0 0 0 0 0 0 0 0 0 0 0 0 0 0 0 0 0 0 0 0 0 0 0 0 0 0 0 0 0 0 0 0 0 0 0 0 0 0
0 0 0 0 0 0 0 0 0 0 0 0 0 0 0 0 0 0 0 0 0 0 0 0 0 0 0 0 0 0 0 0 0 0 0 0 0 0
Wind_Speed
11 10 7 5 5 4 4 5 6 4 4 4 3 3 3 3 4 3 3 4 5 5 5 5 5 6 7 8 8 10 10 11 12 13 14 15 16 17
9 10 8 5 5 5 5 4 4 4 4 4 3 2 3 3 4 3 3 3 3 4 4 4 5 6 6 7 8 9 10 11 12 13 14 15 16 17
10 11 10 8 6 6 5 4 4 4 4 2 1 1 2 2 2 1 1 1 1 3 4 4 5 5 6 6 7 8 9 10 12 13 14 15 16 16
13 12 11 8 8 7 6 6 5 4 4 4 2 2 2 2 2 2 1 1 1 2 3 4 4 4 5 6 7 7 8 10 11 12 14 15 16 17
14 13 12 11 10 7 7 6 5 4 3 3 2 2 1 1 1 1 0 0 1 2 3 3 3 4 5 5 6 7 8 10 11 12 13 14 15 16
12 12 12 12 11 10 8 7 6 5 4 3 2 2 2 1 2 1 1 1 1 2 2 2 3 4 5 5 6 7 8 9 11 12 13 13 14 15
10 10 10 12 13 11 8 7 7 5 4 4 3 2 2 2 2 2 2 1 1 1 2 2 1 2 2 4 6 7 8 9 10 12 13 14 14 15
11 10 9 11 12 13 11 11 10 8 7 5 3 4 4 3 2 2 2 1 2 1 1 2 1 2 2 2 6 7 8 9 11 12 13 14 14 14
12 10 8 8 11 9 10 10 8 8 9 7 6 5 5 4 4 3 2 2 2 1 0 2 1 2 2 3 7 7 8 9 11 12 13 13 14 15
11 12 11 11 10 11 10 8 5 4 5 5 5 5 4 4 4 4 3 2 1 0 0 1 2 2 3 3 6 6 8 9 11 12 12 13 14 14
10 11 12 11 15 16 12 10 7 4 6 8 7 7 7 7 6 4 3 2 1 1 0 1 1 2 3 2 3 7 9 10 11 12 13 14 14 13
7 9 12 13 17 18 12 11 10 7 7 6 6 5 4 5 5 4 4 3 1 2 1 1 1 1 3 2 2 3 4 8 11 12 13 14 14 7
7 6 7 15 17 17 13 9 11 10 8 7 5 4 3 3 2 2 2 3 3 2 2 1 1 0 1 3 3 2 3 4 5 7 10 14 14 10
7 6 8 15 16 16 11 12 16 12 6 6 5 3 3 2 2 2 2 2 1 2 2 2 2 2 1 2 3 4 4 3 3 4 5 11 11 12
6 10 13 16 14 11 13 16 13 7 6 6 5 3 3 3 3 2 2 3 3 2 1 1 1 1 2 2 3 3 4 4 3 4 6 6 5 5
8 11 15 14 10 11 11 9 5 6 6 5 5 4 3 3 2 2 2 1 1 1 2 1 1 1 1 2 2 3 3 4 5 6 6 6 5 4
9 7 6 7 7 6 6 5 5 5 5 4 5 5 4 3 2 1 2 1 1 0 1 2 2 1 2 2 1 3 3 3 4 5 6 6 5 5
11 8 7 7 7 7 7 5 4 5 5 5 5 5 4 4 3 2 2 2 1 1 0 1 2 3 2 2 3 3 3 3 4 5 4 5 6 5
8 8 7 7 6 6 6 6 5 4 5 5 5 5 5 4 3 3 2 2 1 1 0 0 1 1 2 3 4 2 2 4 4 4 4 4 5 7
6 7 7 7 7 6 6 6 6 5 5 5 5 5 4 4 4 3 2 2 2 1 0 1 0 0 1 2 2 4 5 3 3 4 4 4 4 6
5 6 6 7 7 6 6 6 6 6 5 5 5 5 4 4 4 3 3 3 2 1 1 1 2 2 0 1 1 3 4 6 5 3 4 4 4 4
6 6 6 6 6 6 6 6 6 6 6 5 4 4 4 4 4 4 3 3 2 1 1 0 1 1 1 1 1 2 4 5 6 7 5 4 3 4
6 6 6 6 6 6 6 7 7 6 5 5 5 4 4 4 3 3 3 3 3 2 2 1 2 2 2 1 1 2 3 5 4 5 5 9 10 8
Wind_Direction
183 182 184 184 177 171 163 161 159 182 224 229 221 212 193 182 191 185 202 226 238 255 268 274 278 286 293 300 305 308 311 314 315 314 313 313 315 316
181 183 188 186 178 173 174 176 170 168 203 216 211 200 178 176 181 176 197 213 239 257 267 274 281 288 295 302 304 307 311 313 314 314 315 315 316 316
183 186 190 183 180 179 176 176 180 168 196 222 192 165 157 166 159 168 175 195 245 270 277 280 285 291 299 303 308 311 312 313 314 315 315 316 317 317
186 186 189 184 186 181 177 185 188 181 179 202 192 168 163 169 164 169 167 203 247 289 288 288 295 300 304 308 311 314 315 316 316 315 315 317 318 318
187 187 187 183 189 183 179 185 186 181 177 176 179 155 140 133 132 138 173 288 295 307 303 295 299 309 314 315 317 319 318 317 317 319 319 319 319 318
187 187 186 188 189 182 183 186 177 172 165 162 165 155 147 131 126 171 241 260 296 323 315 313 315 326 325 323 323 321 320 321 322 322 322 322 322 320
184 185 187 187 185 182 181 179 173 172 167 170 171 155 164 163 192 179 202 258 284 317 314 303 308 313 320 323 323 319 323 326 327 327 326 325 324 322
182 181 181 181 178 175 171 169 171 174 179 175 177 182 194 191 170 160 161 162 277 311 313 293 313 288 292 293 315 325 329 332 333 331 329 328 327 326
179 175 172 174 168 162 157 155 162 167 172 172 176 190 183 184 165 169 181 187 216 245 347 280 306 286 287 310 319 326 333 336 335 333 332 332 331 328
176 174 171 169 168 160 152 148 146 154 166 161 166 174 168 161 164 169 166 144 114 349 90 268 294 286 305 311 321 335 340 340 337 335 336 334 331 328
169 169 168 167 165 157 151 148 141 132 119 129 129 128 130 133 133 121 122 120 211 258 225 229 284 301 301 294 317 336 339 338 338 338 338 336 334 334
159 164 169 166 164 161 161 158 158 157 139 124 111 100 105 115 121 139 157 152 161 234 223 181 252 325 311 298 302 317 329 334 339 340 340 339 338 337
158 159 162 161 161 162 161 163 161 150 143 136 128 116 103 98 97 96 121 157 172 210 197 152 188 236 261 297 309 315 320 321 327 330 336 336 337 338
157 154 153 155 156 157 156 150 145 141 136 134 135 139 140 134 115 102 96 97 124 180 184 166 177 190 230 286 294 312 315 311 317 318 320 328 331 333
140 142 143 145 144 145 146 146 144 144 144 145 154 160 155 146 130 107 81 74 58 46 64 171 186 203 205 234 274 296 311 312 321 322 320 319 315 319
127 129 131 132 129 127 133 139 142 149 150 151 148 138 128 127 128 122 118 95 70 16 6 354 276 205 222 244 247 276 288 300 315 320 318 314 311 310
133 124 125 133 131 128 127 129 133 137 137 137 137 136 135 131 123 108 104 87 96 358 340 353 352 328 240 223 261 276 293 301 305 318 323 321 313 313
135 138 141 144 146 146 143 140 139 143 142 140 140 143 144 141 131 106 93 111 118 113 326 326 349 3 4 325 232 266 297 299 312 318 319 317 316 322
137 143 148 150 148 148 147 146 145 143 139 140 141 142 138 134 131 129 127 117 114 117 317 322 11 37 20 328 315 294 291 313 321 322 320 311 304 312
142 148 152 152 150 150 148 143 138 137 137 140 139 139 140 139 139 142 146 140 135 134 28 349 9 341 218 248 287 304 313 311 317 321 322 316 303 307
142 144 147 149 148 145 143 142 142 142 141 139 139 141 142 139 139 142 140 136 123 137 158 275 286 324 343 40 341 318 320 327 325 317 321 330 334 339
145 144 142 143 143 143 142 141 138 138 140 137 138 139 139 138 141 141 141 142 144 142 148 348 352 19 45 57 356 323 329 334 341 348 348 345 342 341
145 142 139 139 139 139 140 142 141 143 144 142 139 138 137 134 134 134 134 132 127 120 98 62 22 27 29 34 18 349 345 346 347 355 357 356 356 350